DW0427 Weather Reports


time (UTC)temp
F
wind
direction
speed
knots
gust
knots
rain 1hr
in
rain 24hr
in
rain mn
in
humidity
%
barometer
mb
20260507174607 54 45 5.2 13.0 0.00 0.00 0.00 71 1011.6
20260507174407 54 45 5.2 13.0 0.00 0.00 0.00 71 1011.5
20260507174207 54 45 5.2 13.0 0.00 0.00 0.00 70 1011.5
20260507173808 55 45 4.3 9.6 0.00 0.00 0.00 71 1011.5
20260507173609 55 45 4.3 9.6 0.00 0.00 0.00 70 1011.5
20260507173408 55 45 5.2 9.6 0.00 0.00 0.00 70 1011.5
20260507173208 55 46 5.2 9.6 0.00 0.00 0.00 70 1011.5
20260507173008 55 45 5.2 9.6 0.00 0.00 0.00 70 1011.5
20260507172808 55 46 5.2 9.6 0.00 0.00 0.00 70 1011.5
20260507172407 55 46 5.2 9.6 0.00 0.00 0.00 70 1011.6
20260507172207 55 45 5.2 12.2 0.00 0.00 0.00 70 1011.5
20260507172007 55 46 5.2 12.2 0.00 0.00 0.00 70 1011.5
20260507171807 55 46 5.2 12.2 0.00 0.00 0.00 70 1011.4
20260507171607 55 45 5.2 12.2 0.00 0.00 0.00 70 1011.4
20260507171407 55 46 5.2 12.2 0.00 0.00 0.00 70 1011.5
20260507171207 55 46 5.2 10.4 0.00 0.00 0.00 69 1011.5
20260507170808 55 46 5.2 11.3 0.00 0.00 0.00 69 1011.4
20260507170608 55 46 5.2 11.3 0.00 0.00 0.00 68 1011.3
20260507170407 56 45 5.2 11.3 0.00 0.00 0.00 68 1011.3
20260507170208 56 46 5.2 11.3 0.00 0.00 0.00 68 1011.3
20260507170008 56 46 5.2 11.3 0.00 0.00 0.00 67 1011.3
20260507165808 56 46 4.3 9.6 0.00 0.00 0.00 67 1011.4
20260507165608 56 46 4.3 9.6 0.00 0.00 0.00 66 1011.5
20260507165408 56 45 4.3 9.6 0.00 0.00 0.00 65 1011.5
20260507165208 56 45 3.5 8.7 0.00 0.00 0.00 64 1011.4
20260507164808 57 46 3.5 7.0 0.00 0.00 0.00 62 1011.4
20260507164608 57 46 3.5 7.0 0.00 0.00 0.00 61 1011.3
20260507164208 57 46 3.5 6.1 0.00 0.00 0.00 62 1011.4
20260507164007 57 46 2.6 5.2 0.00 0.00 0.00 62 1011.4
20260507163807 57 46 2.6 5.2 0.00 0.00 0.00 62 1011.3
20260507163607 57 46 2.6 5.2 0.00 0.00 0.00 61 1011.3
20260507163407 57 45 2.6 4.3 0.00 0.00 0.00 60 1011.3
20260507163207 57 45 3.5 4.3 0.00 0.00 0.00 62 1011.3
20260507163007 57 45 3.5 4.3 0.00 0.00 0.00 61 1011.3
20260507162607 57 45 5.2 7.8 0.00 0.00 0.00 60 1011.2
20260507162407 57 45 5.2 11.3 0.00 0.00 0.00 60 1011.3
20260507162007 57 45 5.2 11.3 0.00 0.00 0.00 61 1011.2
20260507161807 57 45 5.2 11.3 0.00 0.00 0.00 59 1011.2
20260507161608 57 45 5.2 11.3 0.00 0.00 0.00 59 1011.2
20260507161408 57 45 4.3 11.3 0.00 0.00 0.00 59 1011.1
20260507161208 57 45 4.3 11.3 0.00 0.00 0.00 58 1011.1
20260507160808 58 45 3.5 9.6 0.00 0.00 0.00 59 1011.1
20260507160607 58 46 3.5 9.6 0.00 0.00 0.00 59 1011.0
20260507160407 58 45 3.5 9.6 0.00 0.00 0.00 59 1011.1
20260507160207 58 45 3.5 9.6 0.00 0.00 0.00 59 1011.1
20260507160007 58 45 4.3 7.0 0.00 0.00 0.00 59 1011.0
20260507155808 58 45 4.3 9.6 0.00 0.00 0.00 59 1011.0
20260507155608 58 46 4.3 9.6 0.00 0.00 0.00 59 1011.1
20260507155408 58 46 5.2 9.6 0.00 0.00 0.00 58 1011.1
20260507155208 58 46 5.2 9.6 0.00 0.00 0.00 58 1011.1
20260507154808 58 46 5.2 9.6 0.00 0.00 0.00 57 1011.1
20260507154407 58 46 5.2 10.4 0.00 0.00 0.00 57 1011.1
20260507154208 58 45 5.2 10.4 0.00 0.00 0.00 55 1011.1
20260507154009 58 45 5.2 10.4 0.00 0.00 0.00 55 1011.0
20260507153808 58 46 5.2 10.4 0.00 0.00 0.00 55 1011.0
20260507153608 58 46 5.2 10.4 0.00 0.00 0.00 58 1011.0
20260507153408 58 46 4.3 10.4 0.00 0.00 0.00 57 1011.0
20260507152808 58 45 4.3 9.6 0.00 0.00 0.00 57 1011.0
20260507152608 58 46 4.3 9.6 0.00 0.00 0.00 58 1011.0
20260507152408 58 46 4.3 9.6 0.00 0.00 0.00 57 1011.1
20260507151807 58 45 5.2 9.6 0.00 0.00 0.00 57 1011.0
20260507151607 58 45 5.2 9.6 0.00 0.00 0.00 56 1011.0
20260507151407 58 45 5.2 9.6 0.00 0.00 0.00 56 1010.9
20260507151207 58 46 5.2 9.6 0.00 0.00 0.00 55 1010.9
20260507151008 59 46 4.3 9.6 0.00 0.00 0.00 54 1010.8
20260507150807 59 46 4.3 9.6 0.00 0.00 0.00 53 1010.9
20260507150608 59 45 4.3 9.6 0.00 0.00 0.00 53 1010.9
20260507150407 59 46 5.2 9.6 0.00 0.00 0.00 53 1010.8
20260507150207 59 45 5.2 7.8 0.00 0.00 0.00 53 1010.8
20260507150007 59 45 6.1 8.7 0.00 0.00 0.00 54 1010.9
20260507145808 59 46 7.0 8.7 0.00 0.00 0.00 56 1010.9
20260507145608 58 45 7.0 12.2 0.00 0.00 0.00 55 1010.9
20260507145208 58 45 7.0 12.2 0.00 0.00 0.00 54 1010.9
20260507145008 59 45 7.0 12.2 0.00 0.00 0.00 53 1010.9
20260507144808 59 45 6.1 13.0 0.00 0.00 0.00 54 1010.9
20260507144608 59 45 6.1 13.0 0.00 0.00 0.00 54 1011.0
20260507144408 59 46 5.2 13.0 0.00 0.00 0.00 54 1011.2
20260507144208 59 46 4.3 13.0 0.00 0.00 0.00 53 1011.1
20260507144007 60 46 4.3 13.0 0.00 0.00 0.00 51 1011.1
20260507143807 60 46 5.2 11.3 0.00 0.00 0.00 54 1011.0
20260507143607 59 45 5.2 11.3 0.00 0.00 0.00 54 1010.9
20260507143208 59 45 5.2 9.6 0.00 0.00 0.00 56 1011.2
20260507143008 59 46 5.2 9.6 0.00 0.00 0.00 54 1011.1
20260507142808 58 46 5.2 9.6 0.00 0.00 0.00 56 1011.1
20260507142608 58 46 5.2 9.6 0.00 0.00 0.00 56 1011.1
20260507142408 58 46 4.3 9.6 0.00 0.00 0.00 56 1011.2
20260507142208 58 45 4.3 8.7 0.00 0.00 0.00 55 1011.2
20260507142008 58 46 4.3 9.6 0.00 0.00 0.00 56 1011.2
20260507141808 58 45 4.3 9.6 0.00 0.00 0.00 55 1011.2
20260507141608 58 46 4.3 9.6 0.00 0.00 0.00 54 1011.1
20260507141419 58 46 4.3 9.6 0.00 0.00 0.00 53 1011.2
20260507141208 59 46 3.5 9.6 0.00 0.00 0.00 53 1011.1
20260507141008 59 46 4.3 6.1 0.00 0.00 0.00 56 1011.2
20260507140807 59 45 4.3 7.8 0.00 0.00 0.00 56 1011.2
20260507140608 58 46 4.3 7.8 0.00 0.00 0.00 57 1011.2
20260507140408 58 46 4.3 7.8 0.00 0.00 0.00 51 1011.2
20260507140208 58 46 4.3 9.6 0.00 0.00 0.00 50 1011.2
20260507140008 58 46 4.3 9.6 0.00 0.00 0.00 49 1011.2
20260507135808 58 46 5.2 9.6 0.00 0.00 0.00 51 1011.2
20260507135608 58 46 5.2 9.6 0.00 0.00 0.00 49 1011.3
20260507135208 58 46 5.2 7.8 0.00 0.00 0.00 51 1011.3
20260507135008 58 46 5.2 8.7 0.00 0.00 0.00 50 1011.3
20260507134807 58 46 5.2 12.2 0.00 0.00 0.00 49 1011.3
20260507134607 58 46 5.2 12.2 0.00 0.00 0.00 52 1011.2
20260507134407 58 45 5.2 12.2 0.00 0.00 0.00 52 1011.3
20260507134207 58 46 5.2 12.2 0.00 0.00 0.00 50 1011.3
20260507134007 58 45 6.1 12.2 0.00 0.00 0.00 52 1011.2
20260507133607 58 46 7.0 12.2 0.00 0.00 0.00 54 1011.4
20260507133407 58 46 7.0 12.2 0.00 0.00 0.00 53 1011.4
20260507133207 58 45 7.0 12.2 0.00 0.00 0.00 55 1011.3
20260507133007 58 46 6.1 12.2 0.00 0.00 0.00 54 1011.4
20260507132808 58 46 6.1 12.2 0.00 0.00 0.00 57 1011.4
20260507132408 58 45 5.2 10.4 0.00 0.00 0.00 59 1011.5
20260507132208 58 45 5.2 10.4 0.00 0.00 0.00 57 1011.5
20260507132008 57 46 6.1 10.4 0.00 0.00 0.00 59 1011.5
20260507131808 57 45 6.1 10.4 0.00 0.00 0.00 57 1011.5
20260507131608 57 46 6.1 10.4 0.00 0.00 0.00 57 1011.5
20260507131408 57 46 6.1 13.0 0.00 0.00 0.00 57 1011.5
20260507131208 57 46 6.1 13.0 0.00 0.00 0.00 58 1011.4
20260507131007 57 46 6.1 13.0 0.00 0.00 0.00 56 1011.5
20260507130808 57 45 6.1 13.0 0.00 0.00 0.00 57 1011.4
20260507130607 57 46 5.2 13.9 0.00 0.00 0.00 58 1011.4
20260507130408 57 45 5.2 13.9 0.00 0.00 0.00 58 1011.5
20260507130207 57 45 5.2 13.9 0.00 0.00 0.00 57 1011.5
20260507130007 57 46 5.2 13.9 0.00 0.00 0.00 56 1011.4
20260507125808 57 45 5.2 13.9 0.00 0.00 0.00 57 1011.5
20260507125607 58 46 5.2 10.4 0.00 0.00 0.00 57 1011.5
20260507125208 58 45 5.2 10.4 0.00 0.00 0.00 58 1011.4
20260507125008 58 46 4.3 10.4 0.00 0.00 0.00 58 1011.4
20260507124807 59 45 4.3 10.4 0.00 0.00 0.00 60 1011.5
20260507124607 60 46 4.3 10.4 0.00 0.00 0.00 59 1011.4
20260507124408 60 46 4.3 8.7 0.00 0.00 0.00 59 1011.5
20260507124208 60 46 4.3 8.7 0.00 0.00 0.00 61 1011.5
20260507124007 59 45 4.3 8.7 0.00 0.00 0.00 64 1011.5
20260507123808 58 46 5.2 8.7 0.00 0.00 0.00 69 1011.4
20260507123608 57 45 6.1 8.7 0.00 0.00 0.00 69 1011.5
20260507123208 56 46 7.0 9.6 0.00 0.00 0.00 65 1011.6
20260507122808 56 46 7.0 11.3 0.00 0.00 0.00 64 1011.7
20260507122607 56 46 7.0 11.3 0.00 0.00 0.00 64 1011.6
20260507122407 57 45 7.0 11.3 0.00 0.00 0.00 64 1011.6
20260507122207 58 45 7.0 11.3 0.00 0.00 0.00 63 1011.7
20260507122007 58 45 7.0 11.3 0.00 0.00 0.00 63 1011.7
20260507121807 59 45 7.0 10.4 0.00 0.00 0.00 62 1011.6
20260507121607 60 45 7.0 10.4 0.00 0.00 0.00 62 1011.6
20260507121407 60 45 7.0 13.0 0.00 0.00 0.00 68 1011.7
20260507121008 59 45 7.0 13.0 0.00 0.00 0.00 67 1011.7
20260507120808 58 45 7.0 13.0 0.00 0.00 0.00 63 1011.8
20260507120408 59 46 7.8 12.2 0.00 0.00 0.00 67 1011.8
20260507115807 58 45 7.8 13.0 0.00 0.00 0.00 71 1011.9
20260507115608 58 45 7.8 13.0 0.00 0.00 0.00 74 1012.0
20260507115408 57 45 7.8 13.0 0.00 0.00 0.00 74 1012.0
20260507115007 56 45 8.7 13.0 0.00 0.00 0.00 75 1011.9
20260507114607 54 45 8.7 12.2 0.00 0.00 0.00 74 1012.0
20260507114407 54 45 8.7 12.2 0.00 0.00 0.00 73 1012.1
20260507114208 54 45 8.7 13.9 0.00 0.00 0.00 73 1012.1
20260507114008 54 45 9.6 13.9 0.00 0.00 0.00 72 1012.1
20260507113808 55 45 9.6 13.9 0.00 0.00 0.00 73 1012.0
20260507113608 55 45 9.6 13.9 0.00 0.00 0.00 72 1012.1
20260507113407 55 45 8.7 14.8 0.00 0.00 0.00 71 1012.1
20260507113207 55 45 8.7 14.8 0.00 0.00 0.00 71 1012.1
20260507112807 56 46 8.7 14.8 0.00 0.00 0.00 68 1012.1
20260507112407 57 46 7.8 13.9 0.00 0.00 0.00 69 1012.2
20260507112208 57 46 7.8 13.9 0.00 0.00 0.00 72 1012.1
20260507112008 57 45 7.8 13.9 0.00 0.00 0.00 71 1012.1
20260507111808 56 45 7.8 13.9 0.00 0.00 0.00 70 1012.1
20260507111408 57 45 7.8 10.4 0.00 0.00 0.00 65 1012.0
20260507111008 58 45 7.8 13.0 0.00 0.00 0.00 68 1012.1
20260507110607 57 45 7.8 13.0 0.00 0.00 0.00 70 1012.1
20260507110407 57 45 7.8 13.0 0.00 0.00 0.00 69 1012.0
20260507110208 56 45 7.8 13.0 0.00 0.00 0.00 72 1012.0
20260507110007 56 46 7.8 12.2 0.00 0.00 0.00 73 1012.1
20260507105808 55 45 7.8 12.2 0.00 0.00 0.00 72 1012.0
20260507105408 54 45 7.8 12.2 0.00 0.00 0.00 70 1012.1
20260507105208 54 45 7.8 11.3 0.00 0.00 0.00 71 1012.1
20260507105008 54 46 7.8 11.3 0.00 0.00 0.00 71 1012.1
20260507104408 54 45 7.0 11.3 0.00 0.00 0.00 72 1012.0
20260507104208 54 45 7.0 10.4 0.00 0.00 0.00 71 1012.1
20260507103807 54 46 6.1 11.3 0.00 0.00 0.00 72 1012.3
20260507103607 55 45 6.1 11.3 0.00 0.00 0.00 73 1012.3
20260507103407 55 46 6.1 11.3 0.00 0.00 0.00 74 1012.3
20260507103007 55 45 6.1 9.6 0.00 0.00 0.00 76 1012.2
20260507102807 54 45 6.1 11.3 0.00 0.00 0.00 76 1012.3
20260507102607 54 45 6.1 12.2 0.00 0.00 0.00 76 1012.3
20260507102407 54 45 6.1 12.2 0.00 0.00 0.00 76 1012.4
20260507102008 53 46 5.2 13.0 0.00 0.00 0.00 77 1012.3
20260507101608 53 45 5.2 13.0 0.00 0.00 0.00 79 1012.4
20260507101407 53 46 5.2 13.0 0.00 0.00 0.00 79 1012.3
20260507101207 52 45 5.2 13.0 0.00 0.00 0.00 79 1012.3
20260507101007 52 45 5.2 9.6 0.00 0.00 0.00 80 1012.4
20260507100822 52 46 5.2 9.6 0.00 0.00 0.00 82 1012.3
20260507100607 52 46 5.2 9.6 0.00 0.00 0.00 82 1012.4
20260507100408 51 45 5.2 9.6 0.00 0.00 0.00 82 1012.5
20260507100007 51 46 6.1 9.6 0.00 0.00 0.00 83 1012.5
20260507095807 51 45 6.1 9.6 0.00 0.00 0.00 82 1012.5
20260507095607 50 46 7.0 9.6 0.00 0.00 0.00 82 1012.5
20260507095407 50 46 7.8 9.6 0.00 0.00 0.00 82 1012.6
20260507095207 50 46 7.8 10.4 0.00 0.00 0.00 83 1012.5
20260507095007 50 46 8.7 10.4 0.00 0.00 0.00 82 1012.5
20260507094607 50 46 8.7 13.9 0.00 0.00 0.00 82 1012.5
20260507094407 50 46 7.8 13.9 0.00 0.00 0.00 81 1012.4
20260507094207 50 46 7.8 13.9 0.00 0.00 0.00 81 1012.4
20260507093807 50 45 8.7 12.2 0.00 0.00 0.00 81 1012.5
20260507093607 50 45 8.7 12.2 0.00 0.00 0.00 81 1012.4
20260507093222 50 45 9.6 13.9 0.00 0.00 0.00 81 1012.3
20260507093007 50 45 9.6 13.9 0.00 0.00 0.00 80 1012.3
20260507092807 50 45 9.6 13.9 0.00 0.00 0.00 80 1012.3
20260507092608 51 46 9.6 13.9 0.00 0.00 0.00 79 1012.3
20260507092207 51 46 9.6 15.6 0.00 0.00 0.00 78 1012.4
20260507092008 51 45 8.7 15.6 0.00 0.00 0.00 78 1012.3
20260507091807 51 45 8.7 15.6 0.00 0.00 0.00 77 1012.3
20260507091608 52 45 7.8 15.6 0.00 0.00 0.00 77 1012.2
20260507091407 52 45 7.8 13.0 0.00 0.00 0.00 77 1012.2
20260507091208 52 45 7.0 13.0 0.00 0.00 0.00 76 1012.2
20260507090807 53 46 7.0 13.0 0.00 0.00 0.00 77 1012.3
20260507090607 53 46 7.0 13.0 0.00 0.00 0.00 77 1012.3
20260507090408 53 46 7.0 10.4 0.00 0.00 0.00 78 1012.3
20260507090010 53 46 7.0 10.4 0.00 0.00 0.00 77 1012.3
20260507085208 52 45 6.1 13.0 0.00 0.00 0.00 80 1012.4
20260507084808 52 46 6.1 8.7 0.00 0.00 0.00 79 1012.3
20260507084608 52 45 6.1 8.7 0.00 0.00 0.00 79 1012.4
20260507084408 52 46 6.1 9.6 0.00 0.00 0.00 79 1012.3
20260507084207 52 46 6.1 9.6 0.00 0.00 0.00 79 1012.2
20260507084007 52 46 6.1 9.6 0.00 0.00 0.00 80 1012.3
20260507083808 52 46 6.1 9.6 0.00 0.00 0.00 80 1012.3
20260507083608 52 46 6.1 9.6 0.00 0.00 0.00 82 1012.3
20260507083407 52 46 6.1 9.6 0.00 0.00 0.00 83 1012.2
20260507083207 52 46 6.1 9.6 0.00 0.00 0.00 83 1012.3
20260507083007 51 45 6.1 9.6 0.00 0.00 0.00 83 1012.3
20260507082808 51 45 6.1 9.6 0.00 0.00 0.00 83 1012.3
20260507082607 51 45 6.1 9.6 0.00 0.00 0.00 83 1012.2
20260507082223 50 46 5.2 9.6 0.00 0.00 0.00 84 1012.2
20260507082007 50 46 5.2 9.6 0.00 0.00 0.00 83 1012.2
20260507081807 50 45 5.2 9.6 0.00 0.00 0.00 83 1012.2
20260507081607 50 45 5.2 7.8 0.00 0.00 0.00 83 1012.2
20260507081208 50 45 5.2 8.7 0.00 0.00 0.00 83 1012.2
20260507081008 50 46 5.2 8.7 0.00 0.00 0.00 83 1012.2
20260507080808 50 45 5.2 8.7 0.00 0.00 0.00 83 1012.3
20260507080607 50 45 6.1 8.7 0.00 0.00 0.00 83 1012.3
20260507080407 50 45 6.1 8.7 0.00 0.00 0.00 83 1012.3
20260507080208 50 45 6.1 8.7 0.00 0.00 0.00 83 1012.2
20260507080008 50 45 6.1 8.7 0.00 0.00 0.00 82 1012.3
20260507075807 50 45 6.1 8.7 0.00 0.00 0.00 82 1012.4
20260507075607 50 45 6.1 8.7 0.00 0.00 0.00 82 1012.3
20260507075407 50 45 6.1 8.7 0.00 0.00 0.00 82 1012.4
20260507075207 50 45 6.1 8.7 0.00 0.00 0.00 82 1012.4
20260507075007 50 45 5.2 8.7 0.00 0.00 0.00 82 1012.4
20260507074807 50 45 5.2 8.7 0.00 0.00 0.00 82 1012.4
20260507074608 50 45 5.2 8.7 0.00 0.00 0.00 82 1012.4
20260507074408 50 46 5.2 8.7 0.00 0.00 0.00 82 1012.4
20260507074207 50 46 5.2 8.7 0.00 0.00 0.00 82 1012.4
20260507074008 50 46 5.2 8.7 0.00 0.00 0.00 82 1012.2
20260507073807 50 46 6.1 7.8 0.00 0.00 0.00 82 1012.2
20260507073607 50 46 6.1 7.8 0.00 0.00 0.00 82 1012.2
20260507073407 50 45 6.1 7.8 0.00 0.00 0.00 82 1012.1
20260507073008 50 46 7.0 9.6 0.00 0.00 0.00 83 1012.2
20260507072808 49 46 7.0 9.6 0.00 0.00 0.00 83 1012.1
20260507072608 49 45 6.1 9.6 0.00 0.00 0.00 82 1012.0
20260507072207 49 46 6.1 8.7 0.00 0.00 0.00 82 1012.1
20260507072007 49 45 6.1 7.8 0.00 0.00 0.00 83 1012.1
20260507071807 49 45 6.1 7.8 0.00 0.00 0.00 83 1012.0
20260507071607 49 45 6.1 8.7 0.00 0.00 0.00 83 1012.0
20260507071408 49 46 6.1 8.7 0.00 0.00 0.00 83 1012.1
20260507071208 49 45 6.1 8.7 0.00 0.00 0.00 83 1012.0
20260507071008 49 45 6.1 8.7 0.00 0.00 0.00 83 1012.0
20260507070807 49 45 6.1 8.7 0.00 0.00 0.00 84 1012.1
20260507070607 49 45 6.1 7.8 0.00 0.00 0.00 84 1012.1
20260507070407 49 46 6.1 8.7 0.00 0.00 0.00 84 1012.2
20260507070207 49 45 6.1 8.7 0.00 0.00 0.00 83 1012.2
20260507070011 49 45 6.1 8.7 0.00 0.00 0.00 83 1012.1
20260507065807 49 45 6.1 8.7 0.00 0.00 0.00 83 1012.1
20260507065607 49 45 6.1 8.7 0.00 0.00 0.00 83 1012.2
20260507065407 49 46 6.1 8.7 0.00 0.00 0.00 84 1012.2
20260507065007 48 46 6.1 7.8 0.00 0.00 0.00 84 1012.2
20260507064607 48 45 6.1 8.7 0.00 0.00 0.00 84 1012.1
20260507064408 48 45 6.1 8.7 0.00 0.00 0.00 84 1012.2
20260507064208 48 46 6.1 8.7 0.00 0.00 0.00 84 1012.2
20260507064008 48 45 6.1 8.7 0.00 0.00 0.00 84 1012.2
20260507063808 48 45 6.1 8.7 0.00 0.00 0.00 84 1012.2
20260507063608 47 45 6.1 8.7 0.00 0.00 0.00 84 1012.2
20260507063408 47 45 6.1 8.7 0.00 0.00 0.00 84 1012.2
20260507063208 47 46 5.2 7.8 0.00 0.00 0.00 84 1012.1
20260507063008 47 46 5.2 7.8 0.00 0.00 0.00 84 1012.2
20260507062807 47 46 5.2 7.8 0.00 0.00 0.00 85 1012.2
20260507062607 47 46 5.2 7.8 0.00 0.00 0.00 85 1012.1
20260507062207 47 45 5.2 7.0 0.00 0.00 0.00 85 1012.1
20260507062008 47 46 5.2 7.0 0.00 0.00 0.00 85 1012.2
20260507061807 47 46 5.2 7.0 0.00 0.00 0.00 85 1012.1
20260507061607 47 46 5.2 7.0 0.00 0.00 0.00 85 1012.1
20260507061407 47 46 6.1 7.0 0.00 0.00 0.00 85 1012.2
20260507061208 47 46 6.1 7.8 0.00 0.00 0.00 85 1012.1
20260507061008 47 46 6.1 7.8 0.00 0.00 0.00 85 1012.1
20260507060807 47 45 6.1 7.8 0.00 0.00 0.00 85 1012.2
20260507060407 47 46 5.2 8.7 0.00 0.00 0.00 84 1012.1
20260507060207 47 45 5.2 8.7 0.00 0.00 0.00 84 1012.1
20260507060008 47 45 5.2 8.7 0.00 0.00 0.00 84 1012.1
20260507055808 47 46 5.2 8.7 0.00 0.00 0.00 85 1012.1
20260507055407 47 45 5.2 7.8 0.00 0.00 0.00 84 1012.1
20260507055208 47 45 5.2 7.8 0.00 0.00 0.00 84 1012.1
20260507055007 47 46 5.2 7.0 0.00 0.00 0.00 84 1012.0
20260507054807 47 46 5.2 7.0 0.00 0.00 0.00 84 1012.1
20260507054408 47 46 5.2 7.0 0.00 0.00 0.00 85 1012.1
20260507053807 47 45 5.2 7.8 0.00 0.00 0.00 85 1012.1
20260507053607 47 45 5.2 7.8 0.00 0.00 0.00 85 1012.1
20260507053407 47 45 5.2 7.8 0.00 0.00 0.00 85 1012.1
20260507053207 47 45 5.2 7.8 0.00 0.00 0.00 85 1012.1
20260507053007 47 46 5.2 7.8 0.00 0.00 0.00 84 1012.2
20260507052807 46 45 5.2 7.8 0.00 0.00 0.00 84 1012.1
20260507052608 46 46 5.2 7.0 0.00 0.00 0.00 84 1012.1
20260507052408 46 45 5.2 7.0 0.00 0.00 0.00 85 1012.2
20260507052008 47 45 5.2 7.0 0.00 0.00 0.00 85 1012.1
20260507051808 47 46 5.2 7.0 0.00 0.00 0.00 85 1012.0
20260507051608 47 46 5.2 7.0 0.00 0.00 0.00 85 1012.1
20260507051408 46 45 5.2 7.0 0.00 0.00 0.00 85 1012.1
20260507051207 46 46 5.2 7.0 0.00 0.00 0.00 85 1012.1
20260507051008 46 45 5.2 7.8 0.00 0.00 0.00 85 1012.1
20260507050807 46 45 5.2 7.8 0.00 0.00 0.00 85 1012.0
20260507050607 46 46 5.2 7.8 0.00 0.00 0.00 85 1012.0
20260507050407 46 46 5.2 7.8 0.00 0.00 0.00 85 1012.1
20260507050207 46 46 5.2 7.8 0.00 0.00 0.00 85 1012.1
20260507050007 46 46 5.2 7.0 0.00 0.00 0.00 85 1012.0
20260507045807 46 46 5.2 7.0 0.00 0.00 0.00 85 1012.0
20260507045407 46 45 5.2 7.0 0.00 0.00 0.00 85 1012.0
20260507045207 46 45 4.3 7.0 0.00 0.00 0.00 85 1012.0
20260507044607 46 46 5.2 7.0 0.00 0.00 0.00 85 1012.0
20260507044407 46 46 5.2 7.0 0.00 0.00 0.00 85 1012.0
20260507044208 46 45 5.2 7.8 0.00 0.00 0.00 85 1012.0
20260507044008 46 46 6.1 7.8 0.00 0.00 0.00 85 1012.0
20260507043807 46 45 6.1 7.8 0.00 0.00 0.00 85 1012.0
20260507043607 46 46 6.1 7.8 0.00 0.00 0.00 84 1012.0
20260507043407 46 45 6.1 7.8 0.00 0.00 0.00 84 1011.9
20260507043207 46 46 6.1 8.7 0.00 0.00 0.00 84 1011.9
20260507043008 46 45 6.1 8.7 0.00 0.00 0.00 84 1011.8
20260507042808 46 45 7.0 8.7 0.00 0.00 0.00 85 1011.8
20260507042607 47 45 7.0 8.7 0.00 0.00 0.00 85 1011.8
20260507042407 47 45 7.0 8.7 0.00 0.00 0.00 85 1011.7
20260507042208 47 45 7.0 8.7 0.00 0.00 0.00 85 1011.7
20260507042007 47 46 6.1 8.7 0.00 0.00 0.00 85 1011.8
20260507041807 47 45 6.1 8.7 0.00 0.00 0.00 85 1011.8
20260507041607 47 45 6.1 8.7 0.00 0.00 0.00 85 1011.8
20260507041407 47 45 6.1 8.7 0.00 0.00 0.00 85 1011.8
20260507041207 47 45 6.1 8.7 0.00 0.00 0.00 84 1011.8
20260507041008 47 46 6.1 7.8 0.00 0.00 0.00 85 1011.8
20260507040807 47 46 6.1 7.8 0.00 0.00 0.00 85 1011.8
20260507040608 47 45 6.1 7.8 0.00 0.00 0.00 85 1011.8
20260507040407 47 45 5.2 7.8 0.00 0.00 0.00 85 1011.8
20260507040207 47 46 5.2 7.8 0.00 0.00 0.00 85 1011.8
20260507040007 47 45 5.2 7.8 0.00 0.00 0.00 84 1011.8
20260507035807 47 45 5.2 8.7 0.00 0.00 0.00 84 1011.8
20260507035608 47 45 5.2 8.7 0.00 0.00 0.00 84 1011.9
20260507035408 47 45 5.2 8.7 0.00 0.00 0.00 84 1011.8
20260507035207 47 45 5.2 8.7 0.00 0.00 0.00 84 1011.9
20260507035007 47 45 5.2 8.7 0.00 0.00 0.00 84 1011.9
20260507034807 47 45 5.2 7.0 0.00 0.00 0.00 84 1011.9
20260507034607 47 45 5.2 7.8 0.00 0.00 0.00 84 1011.9
20260507034407 47 45 5.2 7.8 0.00 0.00 0.00 84 1012.0
20260507034208 47 45 5.2 7.8 0.00 0.00 0.00 84 1012.0
20260507034008 47 45 5.2 7.8 0.00 0.00 0.00 84 1012.0
20260507033808 47 46 5.2 7.8 0.00 0.00 0.00 84 1012.0
20260507033607 47 45 5.2 7.8 0.00 0.00 0.00 84 1012.0
20260507033407 47 46 5.2 7.8 0.00 0.00 0.00 84 1012.0
20260507033207 47 45 5.2 7.8 0.00 0.00 0.00 84 1012.0
20260507033007 47 45 6.1 7.8 0.00 0.00 0.00 84 1012.0
20260507032807 47 45 6.1 7.8 0.00 0.00 0.00 84 1012.1
20260507032407 47 45 5.2 7.8 0.00 0.00 0.00 84 1012.1
20260507032208 47 46 5.2 7.8 0.00 0.00 0.00 84 1012.2
20260507032007 47 45 5.2 7.8 0.00 0.00 0.00 84 1012.1
20260507031607 47 45 5.2 7.0 0.00 0.00 0.00 83 1012.2
20260507031407 47 45 5.2 7.0 0.00 0.00 0.00 83 1012.2
20260507031007 47 45 4.3 7.0 0.00 0.00 0.00 84 1012.2
20260507030807 47 45 4.3 6.1 0.00 0.00 0.00 84 1012.3
20260507030607 47 46 4.3 6.1 0.00 0.00 0.00 83 1012.3
20260507030407 47 46 4.3 6.1 0.00 0.00 0.00 83 1012.3
20260507030207 47 46 4.3 6.1 0.00 0.00 0.00 83 1012.2
20260507030007 47 45 4.3 6.1 0.00 0.00 0.00 83 1012.2
20260507025807 47 46 4.3 6.1 0.00 0.00 0.00 83 1012.2
20260507025607 47 45 4.3 7.0 0.00 0.00 0.00 83 1012.3
20260507025408 47 46 4.3 7.0 0.00 0.00 0.00 83 1012.3
20260507025008 47 45 4.3 7.0 0.00 0.00 0.00 83 1012.2
20260507024807 47 46 3.5 7.0 0.00 0.00 0.00 83 1012.3
20260507024607 47 46 3.5 6.1 0.00 0.00 0.00 83 1012.2
20260507024407 47 46 3.5 6.1 0.00 0.00 0.00 83 1012.2
20260507024007 47 45 3.5 5.2 0.00 0.00 0.00 83 1012.2
20260507023807 47 45 3.5 5.2 0.00 0.00 0.00 83 1012.3
20260507023408 47 46 3.5 5.2 0.00 0.00 0.00 83 1012.3
20260507023208 47 45 2.6 5.2 0.00 0.00 0.00 83 1012.2
20260507023007 47 46 2.6 5.2 0.00 0.00 0.00 83 1012.3
20260507022807 47 45 2.6 5.2 0.00 0.00 0.00 83 1012.3
20260507021807 47 45 2.6 4.3 0.00 0.00 0.00 83 1012.2
20260507021607 47 45 2.6 4.3 0.00 0.00 0.00 83 1012.1
20260507021407 47 45 2.6 4.3 0.00 0.00 0.00 83 1012.1